Total_Precipitation_Accumulation
0.07 0.08 0.09 0.11 0.12 0.15 0.18 0.24 0.37 0.44 0.36 0.45 0.60 0.91 1.02 1.14 1.33 1.30 1.20 1.22 1.45 1.63 1.91 2.37 2.93 3.78 4.88 5.86 6.17 5.70 5.25 5.00 4.65 4.30 3.73 3.45 3.58 3.52 3.29 2.93 2.57 2.52 2.43 2.52
0.10 0.11 0.08 0.07 0.10 0.13 0.18 0.24 0.35 0.41 0.32 0.37 0.63 1.00 1.29 1.25 1.20 1.17 1.26 1.29 1.36 1.70 2.13 2.83 3.85 4.42 4.71 4.88 4.64 4.34 4.17 4.03 3.55 3.31 3.26 3.10 3.16 2.90 2.75 2.64 2.74 2.33 2.18 2.28
0.10 0.10 0.08 0.07 0.10 0.19 0.20 0.24 0.32 0.39 0.30 0.37 0.67 1.27 1.56 1.46 1.19 1.05 1.17 1.21 1.35 1.73 2.32 3.13 3.72 3.85 3.60 3.27 3.14 3.12 3.26 3.08 2.99 3.09 3.06 3.01 3.11 2.80 2.62 2.60 2.73 2.32 2.00 1.99
0.11 0.09 0.08 0.08 0.10 0.17 0.22 0.17 0.16 0.20 0.31 0.57 0.81 1.55 1.72 1.50 1.39 1.16 1.20 1.21 1.22 1.46 1.86 2.30 2.58 2.46 2.56 2.68 2.70 2.84 2.97 2.77 2.82 2.87 2.66 2.59 2.54 2.43 2.42 2.48 2.58 2.59 2.13 1.94
0.12 0.11 0.10 0.10 0.09 0.11 0.13 0.11 0.15 0.22 0.38 0.61 0.85 1.27 1.50 1.29 1.47 1.20 1.06 1.03 0.96 1.15 1.33 1.47 1.57 1.68 1.87 2.00 2.17 2.45 2.75 2.77 2.67 2.56 2.55 2.60 2.44 2.45 2.44 2.46 2.56 2.66 2.43 2.13
0.10 0.11 0.10 0.09 0.08 0.09 0.10 0.14 0.26 0.38 0.58 1.11 1.09 1.15 1.42 1.42 1.43 1.22 1.04 0.87 0.88 1.02 1.19 1.29 1.29 1.39 1.57 1.71 1.93 2.19 2.58 2.74 2.71 2.55 2.48 2.50 2.56 2.57 2.51 2.55 2.54 2.36 2.33 2.28
0.14 0.11 0.09 0.08 0.10 0.11 0.13 0.20 0.49 0.84 1.22 1.39 0.91 1.00 1.32 1.22 1.06 0.94 0.73 0.67 0.76 0.94 1.11 1.29 1.31 1.29 1.36 1.51 1.64 1.75 2.04 2.36 2.52 2.48 2.46 2.45 2.63 2.55 2.33 2.25 2.23 2.20 1.98 1.93
0.20 0.17 0.09 0.08 0.11 0.13 0.11 0.14 0.32 0.50 0.59 0.73 0.91 1.32 1.43 1.18 0.80 0.55 0.53 0.65 0.82 0.95 1.03 1.15 1.21 1.17 1.24 1.30 1.46 1.62 1.95 2.14 2.32 2.37 2.38 2.40 2.47 2.36 2.19 2.23 2.04 2.03 1.94 1.85
0.11 0.11 0.07 0.06 0.09 0.11 0.12 0.13 0.14 0.23 0.27 0.53 0.97 1.26 1.20 1.02 0.79 0.64 0.60 0.68 0.89 0.91 0.86 0.97 1.02 1.18 1.26 1.24 1.38 1.53 1.82 2.19 2.41 2.53 2.60 2.55 2.52 2.49 2.43 2.36 2.13 1.93 2.06 1.94
0.06 0.08 0.08 0.06 0.08 0.09 0.11 0.14 0.18 0.21 0.31 0.48 0.80 1.24 1.44 1.25 0.99 0.84 0.77 0.76 0.83 0.84 0.86 1.06 1.25 1.35 1.24 1.12 1.22 1.36 1.66 2.15 2.44 2.63 2.60 2.45 2.64 2.53 2.49 2.40 2.19 2.01 2.01 2.06
0.04 0.06 0.09 0.08 0.10 0.12 0.11 0.13 0.18 0.21 0.22 0.34 0.65 0.91 0.88 0.88 0.82 0.78 0.84 0.81 0.68 0.73 0.88 1.12 1.41 1.46 1.27 1.10 1.06 1.22 1.59 1.93 2.20 2.40 2.49 2.35 2.30 2.24 2.25 2.26 2.19 2.14 2.15 2.13
0.03 0.05 0.07 0.09 0.11 0.11 0.13 0.15 0.19 0.24 0.23 0.22 0.38 0.66 0.51 0.60 0.66 0.76 0.89 0.95 0.90 0.92 0.98 1.04 1.21 1.37 1.29 1.21 1.17 1.36 1.66 1.84 1.97 2.09 2.14 2.12 2.12 2.11 2.05 1.99 2.06 2.14 2.06 1.97
0.04 0.05 0.08 0.17 0.23 0.18 0.13 0.13 0.16 0.20 0.23 0.21 0.40 0.68 0.52 0.48 0.69 0.80 0.87 1.08 1.18 0.93 0.84 0.89 1.03 1.17 1.27 1.24 1.26 1.48 1.73 1.80 1.84 1.81 1.87 1.87 1.90 1.89 1.85 1.85 1.94 2.04 2.06 2.05
0.05 0.04 0.06 0.17 0.25 0.23 0.18 0.15 0.16 0.17 0.16 0.18 0.26 0.57 0.54 0.53 0.72 1.00 1.07 1.08 0.92 0.87 0.86 0.88 0.97 1.18 1.25 1.30 1.32 1.39 1.59 1.76 1.73 1.69 1.81 1.95 2.04 2.09 2.07 1.99 2.04 2.16 2.29 2.28
0.05 0.04 0.04 0.05 0.09 0.15 0.18 0.18 0.16 0.13 0.11 0.17 0.21 0.41 0.46 0.57 0.75 0.94 0.99 0.86 0.77 0.84 0.87 0.87 0.95 1.13 1.28 1.45 1.52 1.52 1.56 1.64 1.79 1.95 2.07 2.34 2.52 2.52 2.38 2.32 2.39 2.42 2.50 2.43
0.05 0.05 0.04 0.05 0.08 0.14 0.17 0.18 0.14 0.10 0.10 0.14 0.20 0.34 0.42 0.57 0.69 0.81 0.78 0.75 0.83 0.87 0.87 0.83 0.92 1.13 1.20 1.27 1.38 1.43 1.50 1.60 1.70 1.82 1.99 2.26 2.52 2.67 2.61 2.61 2.76 2.78 2.73 2.81
0.08 0.08 0.07 0.08 0.12 0.14 0.23 0.19 0.15 0.15 0.14 0.17 0.27 0.33 0.39 0.52 0.68 0.84 0.87 0.87 0.92 0.93 0.91 0.90 0.88 1.00 1.23 1.20 1.23 1.38 1.49 1.67 1.86 2.13 2.35 2.49 2.72 2.88 2.82 2.70 2.71 2.74 2.79 2.78
0.19 0.18 0.16 0.14 0.18 0.27 0.27 0.23 0.23 0.24 0.28 0.29 0.34 0.42 0.48 0.58 0.72 0.85 0.92 0.91 1.01 1.11 1.20 1.24 1.28 1.28 1.38 1.36 1.38 1.48 1.64 1.85 1.97 2.10 2.33 2.51 2.72 2.82 2.89 2.91 2.84 2.92 3.04 3.07
0.30 0.33 0.29 0.24 0.27 0.33 0.35 0.34 0.36 0.40 0.53 0.57 0.65 0.72 0.70 0.72 0.78 0.93 1.05 1.14 1.24 1.23 1.28 1.39 1.45 1.49 1.50 1.58 1.73 1.92 2.00 2.19 2.36 2.48 2.66 2.75 2.78 2.84 2.88 2.93 3.06 3.18 3.30 3.31
0.35 0.41 0.41 0.35 0.45 0.54 0.54 0.52 0.47 0.56 0.92 0.82 0.90 1.01 0.99 1.06 1.31 1.37 1.35 1.35 1.39 1.37 1.40 1.48 1.52 1.57 1.78 1.84 1.91 2.10 2.33 2.50 2.69 2.86 2.96 3.03 3.08 3.09 3.05 3.06 3.18 3.27 3.34 3.37
0.45 0.51 0.51 0.49 0.53 0.59 0.58 0.57 0.57 1.01 1.38 1.29 1.30 1.33 1.26 1.41 1.51 1.39 1.31 1.43 1.49 1.55 1.61 1.64 1.69 1.79 1.93 2.00 2.07 2.25 2.53 2.78 2.99 3.03 3.08 3.14 3.25 3.42 3.55 3.58 3.40 3.26 3.27 3.37
0.74 0.78 0.77 0.77 0.93 0.99 0.69 0.77 1.14 1.41 1.35 1.57 1.46 1.31 1.33 1.34 1.30 1.25 1.26 1.43 1.61 1.74 1.79 1.82 1.86 1.90 1.95 2.08 2.22 2.33 2.58 2.73 2.93 2.96 3.09 3.18 3.24 3.18 3.20 3.50 3.60 3.57 3.46 3.33
1.01 1.06 1.11 1.10 1.23 1.10 0.91 0.97 1.25 1.30 1.31 1.45 1.45 1.26 1.23 1.25 1.19 1.21 1.28 1.40 1.57 1.71 1.76 1.76 1.82 1.96 1.95 1.98 2.18 2.46 2.54 2.62 2.67 2.79 2.93 3.15 3.26 3.33 3.31 3.32 3.43 3.45 3.37 3.16
1.23 1.05 1.22 1.43 1.46 1.30 1.12 1.02 1.10 1.18 1.24 1.30 1.43 1.43 1.32 1.30 1.26 1.33 1.37 1.44 1.64 1.73 1.73 1.78 1.74 1.78 1.89 2.00 2.19 2.30 2.35 2.51 2.76 2.88 2.92 3.00 3.09 3.14 3.23 3.32 3.30 3.25 3.22 3.14
1.33 1.30 1.54 1.95 2.00 1.85 1.67 1.42 1.30 1.27 1.30 1.39 1.50 1.56 1.62 1.58 1.54 1.59 1.52 1.54 1.64 1.68 1.64 1.73 1.83 1.87 1.93 2.01 2.18 2.34 2.39 2.45 2.60 2.70 2.68 2.76 2.92 3.01 3.09 3.23 3.30 3.15 3.04 3.06
1.34 1.58 1.97 2.34 2.17 2.18 2.02 1.66 1.50 1.51 1.60 1.59 1.61 1.65 1.62 1.61 1.60 1.63 1.67 1.59 1.51 1.48 1.61 1.76 1.84 1.93 1.98 2.03 2.12 2.19 2.28 2.41 2.55 2.63 2.67 2.66 2.70 2.84 2.94 2.91 2.97 3.01 2.76 2.68